Time,TemperatureF,DewpointF,PressureIn,WindDirection,WindDirectionDegrees,WindSpeedMPH,WindSpeedGustMPH,Humidity,HourlyPrecipIn,Conditions,Clouds,dailyrainin,SoftwareType,DateUTC
2013-01-24 00:04:00,32.9,23.0,30.18,NW,325,4.0,5.0,68,0.00,,,0.00,weatherlink.com 1.10,2013-01-24 05:04:00,
2013-01-24 00:19:00,32.5,23.0,30.16,SW,232,3.0,5.0,69,0.00,,,0.00,weatherlink.com 1.10,2013-01-24 05:19:00,
2013-01-24 00:34:00,32.6,23.0,30.16,SSW,212,2.0,6.0,69,0.00,,,0.00,weatherlink.com 1.10,2013-01-24 05:34:00,
2013-01-24 00:49:00,34.9,26.0,30.14,East,91,3.0,5.0,69,0.00,,,0.00,weatherlink.com 1.10,2013-01-24 05:49:00,
2013-01-24 01:04:00,37.1,26.0,30.14,SW,226,2.0,6.0,65,0.00,,,0.00,weatherlink.com 1.10,2013-01-24 06:04:00,
2013-01-24 01:19:00,36.5,26.0,30.14,SSW,212,1.0,5.0,67,0.00,,,0.00,weatherlink.com 1.10,2013-01-24 06:19:00,
2013-01-24 01:34:00,35.8,26.0,30.12,SSW,204,4.0,6.0,67,0.00,,,0.00,weatherlink.com 1.10,2013-01-24 06:34:00,
2013-01-24 01:49:00,38.2,27.0,30.13,WSW,252,3.0,9.0,65,0.00,,,0.00,weatherlink.com 1.10,2013-01-24 06:49:00,
2013-01-24 02:04:00,39.0,28.0,30.13,South,186,1.0,3.0,66,0.00,,,0.00,weatherlink.com 1.10,2013-01-24 07:04:00,
2013-01-24 02:19:00,39.8,29.0,30.12,ENE,65,4.0,4.0,65,0.00,,,0.00,weatherlink.com 1.10,2013-01-24 07:19:00,
2013-01-24 02:34:00,40.1,29.0,30.12,SSW,204,1.0,6.0,64,0.00,,,0.00,weatherlink.com 1.10,2013-01-24 07:34:00,
2013-01-24 02:49:00,39.8,29.0,30.12,East,101,2.0,3.0,65,0.00,,,0.00,weatherlink.com 1.10,2013-01-24 07:49:00,
2013-01-24 03:04:00,40.7,29.0,30.12,SSW,198,2.0,7.0,63,0.00,,,0.00,weatherlink.com 1.10,2013-01-24 08:04:00,
2013-01-24 03:19:00,40.6,29.0,30.12,WSW,252,1.0,5.0,63,0.00,,,0.00,weatherlink.com 1.10,2013-01-24 08:19:00,
2013-01-24 03:34:00,40.4,29.0,30.12,East,91,1.0,3.0,64,0.00,,,0.00,weatherlink.com 1.10,2013-01-24 08:34:00,
2013-01-24 03:49:00,40.4,29.0,30.12,SW,229,0.0,3.0,64,0.00,,,0.00,weatherlink.com 1.10,2013-01-24 08:49:00,
2013-01-24 04:04:00,41.2,31.0,30.12,NNW,345,8.0,10.0,66,0.00,,,0.00,weatherlink.com 1.10,2013-01-24 09:04:00,
2013-01-24 04:19:00,41.5,30.0,30.13,NNW,345,9.0,14.0,65,0.00,,,0.00,weatherlink.com 1.10,2013-01-24 09:19:00,
2013-01-24 04:35:00,41.0,29.0,30.13,NE,56,9.0,14.0,62,0.00,,,0.00,weatherlink.com 1.10,2013-01-24 09:35:00,
2013-01-24 04:50:00,40.6,28.0,30.14,North,1,10.0,13.0,61,0.00,,,0.00,weatherlink.com 1.10,2013-01-24 09:50:00,
2013-01-24 05:05:00,40.5,27.0,30.15,NNE,16,8.0,14.0,60,0.00,,,0.00,weatherlink.com 1.10,2013-01-24 10:05:00,
2013-01-24 05:20:00,39.9,28.0,30.14,North,8,8.0,19.0,62,0.00,,,0.00,weatherlink.com 1.10,2013-01-24 10:20:00,
2013-01-24 05:35:00,39.6,28.0,30.15,North,349,6.0,16.0,63,0.00,,,0.00,weatherlink.com 1.10,2013-01-24 10:35:00,
2013-01-24 05:50:00,39.2,28.0,30.15,North,4,9.0,13.0,64,0.00,,,0.00,weatherlink.com 1.10,2013-01-24 10:50:00,
2013-01-24 06:05:00,38.8,28.0,30.16,NNE,18,15.0,15.0,65,0.00,,,0.00,weatherlink.com 1.10,2013-01-24 11:05:00,
2013-01-24 06:20:00,38.4,27.0,30.18,North,1,9.0,11.0,63,0.00,,,0.00,weatherlink.com 1.10,2013-01-24 11:20:00,
2013-01-24 06:28:00,38.0,26.9,30.19,NNW,345,8.0,8.0,64,0.00,,,0.00,Wunderground v.1.15,2013-01-24 11:28:00,
2013-01-24 06:33:00,37.7,26.6,30.19,North,353,6.0,8.0,64,0.00,,,0.00,Wunderground v.1.15,2013-01-24 11:33:00,
2013-01-24 06:39:00,37.6,26.5,30.19,North,5,6.0,7.0,64,0.00,,,0.00,Wunderground v.1.15,2013-01-24 11:39:00,
2013-01-24 06:45:00,37.3,26.6,30.19,North,1,5.0,7.0,65,0.00,,,0.00,Wunderground v.1.15,2013-01-24 11:45:00,
2013-01-24 06:50:00,37.0,26.7,30.18,North,1,4.0,5.0,66,0.00,,,0.00,Wunderground v.1.15,2013-01-24 11:50:00,
2013-01-24 06:56:00,36.5,26.6,30.19,NW,321,3.0,6.0,67,0.00,,,0.00,Wunderground v.1.15,2013-01-24 11:56:00,
2013-01-24 07:01:00,36.3,26.4,30.19,NNW,345,3.0,5.0,67,0.00,,,0.00,Wunderground v.1.15,2013-01-24 12:01:00,
2013-01-24 07:07:00,36.1,26.6,30.19,North,357,5.0,8.0,68,0.00,,,0.00,Wunderground v.1.15,2013-01-24 12:07:00,
2013-01-24 07:13:00,35.9,26.0,30.19,NNE,13,5.0,7.0,67,0.00,,,0.00,Wunderground v.1.15,2013-01-24 12:13:00,
2013-01-24 07:19:00,35.7,26.2,30.20,NNW,337,5.0,7.0,68,0.00,,,0.00,Wunderground v.1.15,2013-01-24 12:19:00,
2013-01-24 07:25:00,35.3,25.8,30.21,North,5,6.0,9.0,68,0.00,,,0.00,Wunderground v.1.15,2013-01-24 12:25:00,
2013-01-24 07:30:00,35.3,25.4,30.21,NNW,328,7.0,7.0,67,0.00,,,0.00,Wunderground v.1.15,2013-01-24 12:30:00,
2013-01-24 07:36:00,35.1,25.2,30.21,North,1,7.0,11.0,67,0.00,,,0.00,Wunderground v.1.15,2013-01-24 12:36:00,
2013-01-24 07:41:00,34.7,24.9,30.21,North,351,7.0,7.0,67,0.00,,,0.00,Wunderground v.1.15,2013-01-24 12:41:00,
2013-01-24 07:46:00,34.4,24.6,30.22,NNW,345,6.0,7.0,67,0.00,,,0.00,Wunderground v.1.15,2013-01-24 12:46:00,
2013-01-24 07:52:00,34.3,24.5,30.21,NNE,16,6.0,10.0,67,0.00,,,0.00,Wunderground v.1.15,2013-01-24 12:52:00,
2013-01-24 07:57:00,34.2,24.0,30.22,North,357,8.0,10.0,66,0.00,,,0.00,Wunderground v.1.15,2013-01-24 12:57:00,
2013-01-24 08:02:00,34.0,23.8,30.22,NNW,330,8.0,8.0,66,0.00,,,0.00,Wunderground v.1.15,2013-01-24 13:02:00,
2013-01-24 08:08:00,33.8,24.0,30.24,North,6,7.0,8.0,67,0.00,,,0.00,Wunderground v.1.15,2013-01-24 13:08:00,
2013-01-24 08:13:00,33.7,23.5,30.23,NNW,332,8.0,12.0,66,0.00,,,0.00,Wunderground v.1.15,2013-01-24 13:13:00,
2013-01-24 08:21:00,33.4,23.0,30.24,NNE,13,7.0,14.0,65,0.00,,,0.00,weatherlink.com 1.10,2013-01-24 13:21:00,
2013-01-24 08:36:00,32.7,22.0,30.24,North,5,3.0,13.0,64,0.00,,,0.00,weatherlink.com 1.10,2013-01-24 13:36:00,
2013-01-24 08:51:00,32.1,20.0,30.25,NNW,345,10.0,10.0,62,0.00,,,0.00,weatherlink.com 1.10,2013-01-24 13:51:00,
2013-01-24 09:06:00,31.9,19.0,30.26,NNE,13,7.0,15.0,60,0.00,,,0.00,weatherlink.com 1.10,2013-01-24 14:06:00,
2013-01-24 09:21:00,31.7,18.0,30.27,North,358,11.0,12.0,58,0.00,,,0.00,weatherlink.com 1.10,2013-01-24 14:21:00,
2013-01-24 09:36:00,31.6,17.0,30.29,NNW,343,10.0,12.0,55,0.00,,,0.00,weatherlink.com 1.10,2013-01-24 14:36:00,
2013-01-24 09:51:00,31.6,16.0,30.30,NNW,341,11.0,15.0,52,0.00,,,0.00,weatherlink.com 1.10,2013-01-24 14:51:00,
2013-01-24 10:06:00,31.6,17.0,30.31,North,11,7.0,11.0,54,0.00,,,0.00,weatherlink.com 1.10,2013-01-24 15:06:00,
2013-01-24 10:21:00,31.7,17.0,30.30,North,9,6.0,10.0,55,0.00,,,0.00,weatherlink.com 1.10,2013-01-24 15:21:00,
2013-01-24 10:36:00,32.5,16.0,30.31,NNW,344,11.0,11.0,52,0.00,,,0.00,weatherlink.com 1.10,2013-01-24 15:36:00,
2013-01-24 10:51:00,32.6,16.0,30.32,NE,38,8.0,11.0,50,0.00,,,0.00,weatherlink.com 1.10,2013-01-24 15:51:00,
2013-01-24 11:06:00,32.4,14.0,30.32,North,5,10.0,14.0,47,0.00,,,0.00,weatherlink.com 1.10,2013-01-24 16:06:00,
2013-01-24 11:21:00,32.3,14.0,30.34,NW,319,9.0,12.0,47,0.00,,,0.00,weatherlink.com 1.10,2013-01-24 16:21:00,
2013-01-24 11:37:00,32.2,13.0,30.34,North,355,10.0,11.0,46,0.00,,,0.00,weatherlink.com 1.10,2013-01-24 16:37:00,
2013-01-24 11:51:00,32.3,12.0,30.35,NNE,13,8.0,14.0,44,0.00,,,0.00,weatherlink.com 1.10,2013-01-24 16:51:00,
2013-01-24 12:06:00,32.5,12.0,30.35,North,349,7.0,10.0,42,0.00,,,0.00,weatherlink.com 1.10,2013-01-24 17:06:00,
2013-01-24 12:23:00,32.4,11.0,30.36,NW,321,7.0,12.0,41,0.00,,,0.00,weatherlink.com 1.10,2013-01-24 17:23:00,
2013-01-24 12:36:00,32.4,10.0,30.36,North,5,6.0,10.0,40,0.00,,,0.00,weatherlink.com 1.10,2013-01-24 17:36:00,
2013-01-24 12:51:00,32.5,11.0,30.36,North,359,7.0,10.0,40,0.00,,,0.00,weatherlink.com 1.10,2013-01-24 17:51:00,
2013-01-24 13:06:00,32.4,12.0,30.35,NNW,347,5.0,9.0,43,0.00,,,0.00,weatherlink.com 1.10,2013-01-24 18:06:00,
2013-01-24 13:21:00,32.2,11.0,30.35,NNW,342,5.0,9.0,41,0.00,,,0.00,weatherlink.com 1.10,2013-01-24 18:21:00,
2013-01-24 13:36:00,32.6,9.0,30.36,North,353,4.0,9.0,38,0.00,,,0.00,weatherlink.com 1.10,2013-01-24 18:36:00,
2013-01-24 13:51:00,32.9,10.0,30.36,North,8,5.0,6.0,38,0.00,,,0.00,weatherlink.com 1.10,2013-01-24 18:51:00,
2013-01-24 14:06:00,32.8,8.0,30.35,NNW,341,6.0,8.0,36,0.00,,,0.00,weatherlink.com 1.10,2013-01-24 19:06:00,
2013-01-24 14:21:00,32.1,11.0,30.35,NE,41,4.0,8.0,41,0.00,,,0.00,weatherlink.com 1.10,2013-01-24 19:21:00,
2013-01-24 14:36:00,31.7,10.0,30.36,North,5,6.0,8.0,41,0.00,,,0.00,weatherlink.com 1.10,2013-01-24 19:36:00,
2013-01-24 14:51:00,31.3,9.0,30.37,NNW,340,4.0,11.0,40,0.00,,,0.00,weatherlink.com 1.10,2013-01-24 19:51:00,
2013-01-24 15:06:00,31.6,10.0,30.37,NNW,341,8.0,12.0,40,0.00,,,0.00,weatherlink.com 1.10,2013-01-24 20:06:00,
2013-01-24 15:22:00,31.1,7.0,30.39,North,354,3.0,9.0,37,0.00,,,0.00,weatherlink.com 1.10,2013-01-24 20:22:00,
2013-01-24 15:28:00,31.0,8.3,30.39,North,357,5.0,12.0,38,0.00,,,0.00,Wunderground v.1.15,2013-01-24 20:28:00,
2013-01-24 15:33:00,31.0,7.7,30.39,NNW,343,5.0,12.0,37,0.00,,,0.00,Wunderground v.1.15,2013-01-24 20:33:00,
2013-01-24 15:38:00,31.0,8.3,30.40,North,349,6.0,6.0,38,0.00,,,0.00,Wunderground v.1.15,2013-01-24 20:38:00,
2013-01-24 15:44:00,30.9,7.6,30.40,North,4,5.0,7.0,37,0.00,,,0.00,Wunderground v.1.15,2013-01-24 20:44:00,
2013-01-24 15:50:00,30.9,7.6,30.39,North,357,4.0,5.0,37,0.00,,,0.00,Wunderground v.1.15,2013-01-24 20:50:00,
2013-01-24 15:56:00,30.9,8.2,30.39,NE,34,4.0,10.0,38,0.00,,,0.00,Wunderground v.1.15,2013-01-24 20:56:00,
2013-01-24 16:01:00,30.6,7.4,30.39,ENE,65,6.0,6.0,37,0.00,,,0.00,Wunderground v.1.15,2013-01-24 21:01:00,
2013-01-24 16:07:00,30.7,8.6,30.40,NNW,333,5.0,11.0,39,0.00,,,0.00,Wunderground v.1.15,2013-01-24 21:07:00,
2013-01-24 16:12:00,30.6,8.0,30.39,NNW,345,5.0,5.0,38,0.00,,,0.00,Wunderground v.1.15,2013-01-24 21:12:00,
2013-01-24 16:18:00,30.6,8.5,30.40,NNW,337,5.0,6.0,39,0.00,,,0.00,Wunderground v.1.15,2013-01-24 21:18:00,
2013-01-24 16:24:00,30.5,7.9,30.40,NW,321,5.0,5.0,38,0.00,,,0.00,Wunderground v.1.15,2013-01-24 21:24:00,
2013-01-24 16:29:00,30.5,7.9,30.40,NNE,16,4.0,5.0,38,0.00,,,0.00,Wunderground v.1.15,2013-01-24 21:29:00,
2013-01-24 16:35:00,30.5,7.9,30.41,NNE,20,3.0,6.0,38,0.00,,,0.00,Wunderground v.1.15,2013-01-24 21:35:00,
2013-01-24 16:40:00,30.5,7.9,30.41,NNW,337,3.0,3.0,38,0.00,,,0.00,Wunderground v.1.15,2013-01-24 21:40:00,
2013-01-24 16:46:00,30.4,8.4,30.40,NNW,341,2.0,11.0,39,0.00,,,0.00,Wunderground v.1.15,2013-01-24 21:46:00,
2013-01-24 16:52:00,30.4,8.4,30.40,NW,324,2.0,11.0,39,0.00,,,0.00,Wunderground v.1.15,2013-01-24 21:52:00,
2013-01-24 16:57:00,30.4,8.4,30.41,North,352,2.0,11.0,39,0.00,,,0.00,Wunderground v.1.15,2013-01-24 21:57:00,
2013-01-24 17:03:00,30.3,8.3,30.41,North,354,3.0,4.0,39,0.00,,,0.00,Wunderground v.1.15,2013-01-24 22:03:00,
2013-01-24 17:08:00,30.2,7.6,30.41,North,351,4.0,6.0,38,0.00,,,0.00,Wunderground v.1.15,2013-01-24 22:08:00,
2013-01-24 17:14:00,30.1,7.5,30.41,NNW,337,4.0,5.0,38,0.00,,,0.00,Wunderground v.1.15,2013-01-24 22:14:00,
2013-01-24 17:20:00,30.1,8.1,30.41,North,353,3.0,3.0,39,0.00,,,0.00,Wunderground v.1.15,2013-01-24 22:20:00,
2013-01-24 17:25:00,29.9,7.9,30.41,NNE,21,2.0,3.0,39,0.00,,,0.00,Wunderground v.1.15,2013-01-24 22:25:00,
2013-01-24 17:31:00,29.7,8.3,30.41,North,360,1.0,2.0,40,0.00,,,0.00,Wunderground v.1.15,2013-01-24 22:31:00,
2013-01-24 17:37:00,29.6,7.6,30.42,North,4,2.0,3.0,39,0.00,,,0.00,Wunderground v.1.15,2013-01-24 22:37:00,
2013-01-24 17:43:00,29.5,8.7,30.41,WNW,302,2.0,4.0,41,0.00,,,0.00,Wunderground v.1.15,2013-01-24 22:43:00,
2013-01-24 17:48:00,29.2,8.4,30.42,ENE,58,1.0,4.0,41,0.00,,,0.00,Wunderground v.1.15,2013-01-24 22:48:00,
2013-01-24 17:54:00,29.1,7.7,30.42,North,4,0.0,4.0,40,0.00,,,0.00,Wunderground v.1.15,2013-01-24 22:54:00,
2013-01-24 17:59:00,29.0,7.7,30.42,NNE,32,1.0,4.0,40,0.00,,,0.00,Wunderground v.1.15,2013-01-24 22:59:00,
2013-01-24 18:04:00,28.9,7.6,30.42,SSE,153,1.0,4.0,40,0.00,,,0.00,Wunderground v.1.15,2013-01-24 23:04:00,
2013-01-24 18:10:00,28.6,7.3,30.42,ENE,60,1.0,1.0,40,0.00,,,0.00,Wunderground v.1.15,2013-01-24 23:10:00,
2013-01-24 18:16:00,28.5,6.6,30.43,NNE,27,0.0,2.0,39,0.00,,,0.00,Wunderground v.1.15,2013-01-24 23:16:00,
2013-01-24 18:22:00,28.4,6.6,30.42,ENE,65,1.0,2.0,39,0.00,,,0.00,Wunderground v.1.15,2013-01-24 23:22:00,
2013-01-24 18:28:00,28.2,6.4,30.43,WSW,257,0.0,2.0,39,0.00,,,0.00,Wunderground v.1.15,2013-01-24 23:28:00,
2013-01-24 18:34:00,27.9,6.7,30.42,SW,215,0.0,1.0,40,0.00,,,0.00,Wunderground v.1.15,2013-01-24 23:34:00,
2013-01-24 18:39:00,27.7,6.0,30.43,SE,130,0.0,1.0,40,0.00,,,0.00,weatherlink.com 1.10,2013-01-24 23:39:00,
2013-01-24 18:45:00,27.6,6.4,30.43,SE,129,0.0,3.0,40,0.00,,,0.00,Wunderground v.1.15,2013-01-24 23:45:00,
2013-01-24 18:51:00,27.6,6.9,30.43,NW,305,0.0,3.0,41,0.00,,,0.00,Wunderground v.1.15,2013-01-24 23:51:00,
2013-01-24 18:56:00,27.6,5.8,30.44,NE,39,1.0,3.0,39,0.00,,,0.00,Wunderground v.1.15,2013-01-24 23:56:00,
2013-01-24 19:02:00,27.5,6.3,30.44,NE,44,1.0,1.0,40,0.00,,,0.00,Wunderground v.1.15,2013-01-25 00:02:00,
2013-01-24 19:08:00,27.3,6.1,30.44,WSW,248,0.0,2.0,40,0.00,,,0.00,Wunderground v.1.15,2013-01-25 00:08:00,
2013-01-24 19:14:00,27.1,5.9,30.44,SE,134,0.0,0.0,40,0.00,,,0.00,Wunderground v.1.15,2013-01-25 00:14:00,
2013-01-24 19:19:00,26.9,5.8,30.44,SSE,150,0.0,1.0,40,0.00,,,0.00,Wunderground v.1.15,2013-01-25 00:19:00,
2013-01-24 19:25:00,26.7,5.6,30.44,SSE,160,0.0,1.0,40,0.00,,,0.00,Wunderground v.1.15,2013-01-25 00:25:00,
2013-01-24 19:30:00,26.6,6.0,30.43,SE,146,0.0,0.0,41,0.00,,,0.00,Wunderground v.1.15,2013-01-25 00:30:00,
2013-01-24 19:36:00,26.5,6.5,30.44,SSE,153,1.0,1.0,42,0.00,,,0.00,Wunderground v.1.15,2013-01-25 00:36:00,
2013-01-24 19:41:00,26.3,5.8,30.44,South,170,1.0,3.0,41,0.00,,,0.00,Wunderground v.1.15,2013-01-25 00:41:00,
2013-01-24 19:46:00,26.2,6.7,30.44,South,171,0.0,3.0,43,0.00,,,0.00,Wunderground v.1.15,2013-01-25 00:46:00,
2013-01-24 19:52:00,26.1,6.6,30.43,SW,217,0.0,3.0,43,0.00,,,0.00,Wunderground v.1.15,2013-01-25 00:52:00,
2013-01-24 19:58:00,25.9,5.9,30.43,SSW,208,0.0,3.0,42,0.00,,,0.00,Wunderground v.1.15,2013-01-25 00:58:00,
2013-01-24 20:03:00,25.8,6.9,30.43,SSW,208,0.0,1.0,44,0.00,,,0.00,Wunderground v.1.15,2013-01-25 01:03:00,
2013-01-24 20:09:00,25.8,5.8,30.43,SE,143,0.0,1.0,42,0.00,,,0.00,Wunderground v.1.15,2013-01-25 01:09:00,
2013-01-24 20:14:00,25.7,6.3,30.43,SE,143,0.0,1.0,43,0.00,,,0.00,Wunderground v.1.15,2013-01-25 01:14:00,
2013-01-24 20:20:00,25.6,6.2,30.43,South,177,0.0,0.0,43,0.00,,,0.00,Wunderground v.1.15,2013-01-25 01:20:00,
2013-01-24 20:25:00,25.5,6.1,30.43,SW,222,0.0,2.0,43,0.00,,,0.00,Wunderground v.1.15,2013-01-25 01:25:00,
2013-01-24 20:31:00,25.4,7.5,30.43,South,187,1.0,1.0,46,0.00,,,0.00,Wunderground v.1.15,2013-01-25 01:31:00,
2013-01-24 20:37:00,25.4,6.5,30.44,SSW,210,0.0,1.0,44,0.00,,,0.00,Wunderground v.1.15,2013-01-25 01:37:00,
2013-01-24 20:42:00,25.4,6.5,30.43,SSW,212,0.0,2.0,44,0.00,,,0.00,Wunderground v.1.15,2013-01-25 01:42:00,
2013-01-24 20:47:00,25.4,7.5,30.43,SSW,212,0.0,2.0,46,0.00,,,0.00,Wunderground v.1.15,2013-01-25 01:47:00,
2013-01-24 20:53:00,25.1,6.7,30.43,SSW,212,0.0,2.0,45,0.00,,,0.00,Wunderground v.1.15,2013-01-25 01:53:00,
2013-01-24 20:58:00,25.1,7.7,30.43,SSW,212,1.0,2.0,47,0.00,,,0.00,Wunderground v.1.15,2013-01-25 01:58:00,
2013-01-24 21:04:00,25.0,8.0,30.42,South,173,0.0,1.0,48,0.00,,,0.00,Wunderground v.1.15,2013-01-25 02:04:00,
2013-01-24 21:10:00,25.0,6.6,30.42,South,187,0.0,0.0,45,0.00,,,0.00,Wunderground v.1.15,2013-01-25 02:10:00,
2013-01-24 21:15:00,25.1,7.7,30.42,South,187,0.0,0.0,47,0.00,,,0.00,Wunderground v.1.15,2013-01-25 02:15:00,
2013-01-24 21:20:00,25.1,8.1,30.42,South,187,0.0,0.0,48,0.00,,,0.00,Wunderground v.1.15,2013-01-25 02:20:00,
2013-01-24 21:26:00,24.9,7.0,30.43,South,187,0.0,0.0,46,0.00,,,0.00,Wunderground v.1.15,2013-01-25 02:26:00,
2013-01-24 21:31:00,24.6,7.2,30.43,South,187,0.0,0.0,47,0.00,,,0.00,Wunderground v.1.15,2013-01-25 02:31:00,
2013-01-24 21:37:00,24.4,7.9,30.43,South,187,0.0,1.0,49,0.00,,,0.00,Wunderground v.1.15,2013-01-25 02:37:00,
2013-01-24 21:42:00,24.4,7.0,30.42,South,187,1.0,1.0,48,0.00,,,0.00,weatherlink.com 1.10,2013-01-25 02:42:00,
2013-01-24 21:48:00,24.4,6.6,30.43,South,187,1.0,1.0,46,0.00,,,0.00,Wunderground v.1.15,2013-01-25 02:48:00,
2013-01-24 21:53:00,24.5,7.6,30.43,SSW,194,1.0,1.0,48,0.00,,,0.00,Wunderground v.1.15,2013-01-25 02:53:00,
2013-01-24 21:58:00,24.7,8.2,30.43,SW,214,1.0,1.0,49,0.00,,,0.00,Wunderground v.1.15,2013-01-25 02:58:00,
2013-01-24 22:04:00,24.9,8.0,30.43,SW,232,1.0,2.0,48,0.00,,,0.00,Wunderground v.1.15,2013-01-25 03:04:00,
2013-01-24 22:12:00,25.3,7.0,30.43,SW,222,1.0,6.0,46,0.00,,,0.00,weatherlink.com 1.10,2013-01-25 03:12:00,
2013-01-24 22:27:00,25.6,8.0,30.43,SSE,158,6.0,10.0,47,0.00,,,0.00,weatherlink.com 1.10,2013-01-25 03:27:00,
2013-01-24 22:42:00,26.0,9.0,30.43,SE,138,1.0,14.0,48,0.00,,,0.00,weatherlink.com 1.10,2013-01-25 03:42:00,
2013-01-24 22:57:00,25.7,9.0,30.43,SSW,207,1.0,18.0,50,0.00,,,0.00,weatherlink.com 1.10,2013-01-25 03:57:00,
2013-01-24 23:12:00,25.4,9.0,30.43,SE,140,6.0,18.0,49,0.00,,,0.00,weatherlink.com 1.10,2013-01-25 04:12:00,
2013-01-24 23:27:00,24.9,8.0,30.44,ESE,106,4.0,12.0,49,0.00,,,0.00,weatherlink.com 1.10,2013-01-25 04:27:00,
2013-01-24 23:42:00,24.5,8.0,30.44,SSE,154,4.0,18.0,49,0.00,,,0.00,weatherlink.com 1.10,2013-01-25 04:42:00,
2013-01-24 23:57:00,24.1,7.0,30.45,SW,215,2.0,11.0,48,0.00,,,0.00,weatherlink.com 1.10,2013-01-25 04:57:00,